White Mountain, AK

6:03 PM AKST on January 20, 2018 (GMT -0900)
White Mountain

Weather History for PAWM - October, 2013

Change the Weather History Date:

Monday, October 14, 2013

  Actual Average (PAOM) Record (PAOM)
Temperature  
Mean Temperature 37 °F -  
Max Temperature 39 °F 36 °F 47 °F (1969)
Min Temperature 35 °F 25 °F 4 °F (1996)
Degree Days  
Heating Degree Days 28    
Moisture  
Dew Point 37 °F    
Average Humidity 99    
Maximum Humidity 100    
Minimum Humidity 93    
Precipitation  
Precipitation 0.02 in - - ()
Sea Level Pressure  
Sea Level Pressure 29.53 in    
Wind  
Wind Speed 8 mph (SSE)    
Max Wind Speed 17 mph    
Max Gust Speed 22 mph    
Visibility 2 miles    
Events Fog , Rain    
Averages and records for this station are not official NWS values.
T = Trace of Precipitation, MM = Missing Value Source: NWS Daily Summary

Daily Weather History Graph

Daily Weather History Graph

Search for Another Location

Airport or City:

Trip Planner

Search our weather history database for the weather conditions in past years. The results will help you decide how hot, cold, wet, or windy it might be!

Date:

Astronomy

Oct. 14, 2013 Rise Set
Actual Time 9:44 AM AKDT 7:33 PM AKDT
Civil Twilight 8:54 AM AKDT 8:23 PM AKDT
Nautical Twilight 7:57 AM AKDT 9:19 PM AKDT
Astronomical Twilight 7:00 AM AKDT 10:16 PM AKDT
Moon 6:24 PM AKDT (10/14) 3:45 AM AKDT (10/14)
Length of Visible Light 11h 28m
Length of Day
9h 49m
Waxing Gibbous, 80% of the Moon is Illuminated
Oct 14
Waxing Gibbous
Oct 18
Full
Oct 26
Last Quarter
Nov 3
New
Nov 9
First Quarter

Hourly Weather History & Observations

Time (AKDT) Temp. Windchill Dew Point Humidity Pressure Visibility Wind Dir Wind Speed Gust Speed Precip Events Conditions
12:06 AM 39.2 °F 35.9 °F 37.4 °F 93% 29.39 in 0.5 mi South 4.6 mph - N/A Fog Fog
12:15 AM 39.2 °F 37.0 °F 37.4 °F 93% 29.39 in 0.2 mi South 3.5 mph - N/A Fog Fog
12:58 AM 37.9 °F - 37.9 °F 100% 29.43 in 0.2 mi Calm Calm - N/A Fog Fog
1:58 AM 39.0 °F 34.8 °F 39.0 °F 100% 29.44 in 0.2 mi South 5.8 mph - N/A Fog Fog
2:14 AM 39.2 °F 35.9 °F 37.4 °F 93% 29.42 in 0.2 mi South 4.6 mph - N/A Fog Fog
2:22 AM 39.2 °F 34.2 °F 37.4 °F 93% 29.42 in 0.5 mi South 6.9 mph - N/A Fog Fog
2:27 AM 39.2 °F 35.0 °F 37.4 °F 93% 29.42 in 0.5 mi South 5.8 mph - N/A Fog Fog
2:36 AM 39.2 °F 34.2 °F 37.4 °F 93% 29.42 in 0.2 mi South 6.9 mph - N/A Fog Fog
2:40 AM 39.2 °F 34.2 °F 37.4 °F 93% 29.42 in 0.5 mi South 6.9 mph - N/A Fog Fog
2:58 AM 39.0 °F 34.0 °F 37.9 °F 96% 29.46 in 0.5 mi South 6.9 mph - N/A Fog Fog
3:03 AM 39.2 °F 34.2 °F 37.4 °F 93% 29.43 in 0.5 mi South 6.9 mph - N/A Fog Fog
3:07 AM 39.2 °F 34.2 °F 37.4 °F 93% 29.43 in 0.2 mi South 6.9 mph - N/A Fog Fog
3:58 AM 37.9 °F 31.5 °F 37.0 °F 97% 29.47 in 0.2 mi South 9.2 mph - N/A Fog Fog
4:09 AM 37.4 °F 30.3 °F 37.4 °F 100% 29.44 in 0.5 mi South 10.4 mph - N/A Fog Fog
4:44 AM 37.4 °F 32.8 °F 37.4 °F 100% 29.44 in 1.0 mi South 5.8 mph - N/A   Overcast
4:49 AM 37.4 °F 32.8 °F 37.4 °F 100% 29.44 in 1.2 mi South 5.8 mph - N/A   Overcast
4:53 AM 37.4 °F 32.8 °F 37.4 °F 100% 29.44 in 0.8 mi South 5.8 mph - N/A   Overcast
4:58 AM 37.0 °F 31.6 °F 37.0 °F 100% 29.48 in 0.8 mi South 6.9 mph - N/A   Overcast
5:06 AM 37.4 °F 32.8 °F 37.4 °F 100% 29.44 in 1.0 mi SSE 5.8 mph - 0.00 in   Overcast
5:14 AM 37.4 °F 32.8 °F 37.4 °F 100% 29.44 in 0.8 mi SSE 5.8 mph - 0.00 in   Overcast
5:18 AM 37.4 °F 32.1 °F 37.4 °F 100% 29.44 in 0.5 mi South 6.9 mph - 0.00 in Fog Fog
5:33 AM 37.4 °F 30.8 °F 37.4 °F 100% 29.45 in 0.2 mi South 9.2 mph - 0.00 in Fog , Rain Light Rain
5:58 AM 37.0 °F 31.6 °F 37.0 °F 100% 29.48 in 0.2 mi SSE 6.9 mph - 0.00 in Fog Fog
6:08 AM 37.4 °F 32.1 °F 37.4 °F 100% 29.45 in 0.5 mi South 6.9 mph - 0.00 in Fog , Rain Light Rain
6:25 AM 37.4 °F 32.1 °F 37.4 °F 100% 29.45 in 0.2 mi South 6.9 mph - 0.00 in Fog Fog
6:42 AM 37.4 °F 32.8 °F 37.4 °F 100% 29.45 in 0.5 mi SSE 5.8 mph - 0.00 in Fog , Rain Light Rain
6:58 AM 37.9 °F 32.7 °F 37.0 °F 97% 29.48 in 0.5 mi SSE 6.9 mph - 0.00 in Fog Fog
7:32 AM 37.4 °F 31.4 °F 37.4 °F 100% 29.45 in 0.2 mi South 8.1 mph - 0.00 in Fog Fog
7:40 AM 37.4 °F 32.1 °F 37.4 °F 100% 29.46 in 0.5 mi SSE 6.9 mph - 0.00 in Fog Fog
7:51 AM 37.4 °F 32.1 °F 37.4 °F 100% 29.46 in 0.2 mi South 6.9 mph - 0.00 in Fog Fog
7:58 AM 37.9 °F 30.9 °F 37.0 °F 97% 29.50 in 0.2 mi South 10.4 mph - 0.00 in Fog Fog
8:32 AM 37.4 °F 31.4 °F 37.4 °F 100% 29.46 in 0.5 mi South 8.1 mph - 0.00 in Fog , Rain Light Rain
8:58 AM 37.9 °F 32.1 °F 37.9 °F 100% 29.50 in 0.5 mi SSE 8.1 mph - 0.00 in Fog , Rain Light Rain
9:07 AM 37.4 °F 30.3 °F 37.4 °F 100% 29.47 in 0.2 mi South 10.4 mph - 0.00 in Fog , Rain Light Rain
9:58 AM 37.9 °F 32.1 °F 37.9 °F 100% 29.51 in 0.2 mi South 8.1 mph - 0.00 in Fog , Rain Light Rain
10:58 AM 37.9 °F 29.6 °F 37.0 °F 97% 29.54 in 0.2 mi South 13.8 mph - 0.00 in Fog , Rain Light Rain
11:25 AM 37.4 °F 29.8 °F 37.4 °F 100% 29.51 in 0.8 mi South 11.5 mph - 0.00 in Rain Light Rain
11:27 AM 37.4 °F 30.3 °F 37.4 °F 100% 29.51 in 1.2 mi South 10.4 mph - 0.00 in Rain Light Rain
11:32 AM 37.4 °F 30.3 °F 35.6 °F 93% 29.51 in 7.0 mi South 10.4 mph - 0.00 in   Overcast
11:38 AM 37.4 °F 30.8 °F 35.6 °F 93% 29.51 in 1.0 mi South 9.2 mph - 0.00 in   Overcast
11:43 AM 37.4 °F 29.8 °F 35.6 °F 93% 29.51 in 0.8 mi South 11.5 mph - 0.00 in   Overcast
11:48 AM 37.4 °F 29.3 °F 35.6 °F 93% 29.51 in 2.0 mi South 12.7 mph - 0.00 in   Overcast
11:52 AM 37.4 °F 30.3 °F 35.6 °F 93% 29.51 in 4.0 mi South 10.4 mph - 0.00 in   Overcast
11:58 AM 37.0 °F 30.4 °F 36.0 °F 96% 29.55 in 4.0 mi South 9.2 mph - 0.00 in   Overcast
12:10 PM 37.4 °F 29.3 °F 35.6 °F 93% 29.51 in 4.0 mi South 12.7 mph - N/A   Overcast
12:29 PM 35.6 °F 26.2 °F 35.6 °F 100% 29.52 in 2.0 mi South 15.0 mph 21.9 mph N/A   Overcast
12:31 PM 35.6 °F 26.6 °F 35.6 °F 100% 29.52 in 1.8 mi South 13.8 mph 19.6 mph N/A   Overcast
12:36 PM 35.6 °F 25.5 °F 35.6 °F 100% 29.52 in 1.0 mi South 17.3 mph 20.7 mph 0.00 in   Overcast
12:42 PM 35.6 °F 26.6 °F 35.6 °F 100% 29.53 in 1.8 mi SSW 13.8 mph 20.7 mph 0.00 in Rain Light Rain
12:45 PM 35.6 °F 27.5 °F 35.6 °F 100% 29.53 in 2.5 mi South 11.5 mph - 0.00 in Rain Light Rain
12:49 PM 35.6 °F 26.6 °F 35.6 °F 100% 29.53 in 2.5 mi South 13.8 mph 21.9 mph 0.00 in Rain Light Rain
12:58 PM 36.0 °F 27.5 °F 36.0 °F 100% 29.57 in 6.0 mi South 12.7 mph 21.9 mph 0.00 in   Overcast
1:03 PM 35.6 °F 28.0 °F 35.6 °F 100% 29.54 in 3.0 mi South 10.4 mph 20.7 mph N/A   Overcast
1:18 PM 35.6 °F 26.6 °F 35.6 °F 100% 29.54 in 2.5 mi SSW 13.8 mph 19.6 mph N/A   Overcast
1:23 PM 35.6 °F 27.5 °F 35.6 °F 100% 29.54 in 5.0 mi South 11.5 mph - N/A   Overcast
1:50 PM 35.6 °F 27.5 °F 35.6 °F 100% 29.55 in 2.5 mi South 11.5 mph - N/A   Overcast
1:58 PM 36.0 °F 27.5 °F 36.0 °F 100% 29.59 in 2.5 mi South 12.7 mph - N/A   Overcast
2:00 PM 35.6 °F 27.5 °F 35.6 °F 100% 29.55 in 3.0 mi South 11.5 mph - N/A   Overcast
2:06 PM 35.6 °F 27.5 °F 35.6 °F 100% 29.55 in 3.0 mi South 11.5 mph - N/A   Overcast
2:35 PM 35.6 °F 28.0 °F 35.6 °F 100% 29.56 in 2.0 mi South 10.4 mph - N/A   Overcast
2:48 PM 35.6 °F 28.0 °F 35.6 °F 100% 29.56 in 1.5 mi South 10.4 mph - 0.00 in   Overcast
2:56 PM 35.6 °F 28.0 °F 35.6 °F 100% 29.56 in 1.8 mi South 10.4 mph - 0.00 in   Overcast
2:58 PM 36.0 °F 28.5 °F 36.0 °F 100% 29.60 in 1.8 mi South 10.4 mph - 0.00 in   Overcast
3:04 PM 35.6 °F 28.6 °F 35.6 °F 100% 29.56 in 1.2 mi South 9.2 mph - N/A   Overcast
3:07 PM 35.6 °F 28.0 °F 35.6 °F 100% 29.56 in 0.8 mi South 10.4 mph - N/A   Overcast
3:09 PM 35.6 °F 28.6 °F 35.6 °F 100% 29.56 in 0.5 mi South 9.2 mph - N/A Fog Fog
3:14 PM 35.6 °F 28.6 °F 35.6 °F 100% 29.56 in 0.2 mi South 9.2 mph - 0.00 in Fog Fog
3:20 PM 35.6 °F 27.1 °F 35.6 °F 100% 29.57 in 0.2 mi South 12.7 mph - 0.00 in Fog , Rain Light Rain
3:37 PM 35.6 °F 28.0 °F 35.6 °F 100% 29.57 in 0.5 mi South 10.4 mph - 0.00 in Fog Fog
3:40 PM 35.6 °F 28.0 °F 35.6 °F 100% 29.57 in 1.0 mi South 10.4 mph - 0.00 in   Overcast
3:44 PM 35.6 °F 28.0 °F 35.6 °F 100% 29.57 in 0.5 mi South 10.4 mph - 0.00 in Fog Fog
3:52 PM 35.6 °F 27.5 °F 35.6 °F 100% 29.57 in 0.5 mi South 11.5 mph - 0.00 in Fog Fog
3:58 PM 36.0 °F 28.0 °F 36.0 °F 100% 29.60 in 0.2 mi South 11.5 mph - 0.00 in Fog Fog
3:59 PM 35.6 °F 27.1 °F 35.6 °F 100% 29.57 in 0.5 mi South 12.7 mph - 0.00 in Fog Fog
4:04 PM 35.6 °F 27.1 °F 35.6 °F 100% 29.57 in 1.2 mi South 12.7 mph - 0.00 in   Overcast
4:07 PM 35.6 °F 28.0 °F 35.6 °F 100% 29.57 in 3.0 mi South 10.4 mph - 0.00 in   Overcast
4:11 PM 35.6 °F 28.6 °F 35.6 °F 100% 29.57 in 4.0 mi South 9.2 mph - 0.00 in   Overcast
4:21 PM 35.6 °F 28.0 °F 35.6 °F 100% 29.57 in 4.0 mi South 10.4 mph - 0.00 in   Overcast
4:25 PM 35.6 °F 29.2 °F 35.6 °F 100% 29.57 in 4.0 mi South 8.1 mph - 0.00 in   Overcast
4:45 PM 35.6 °F 27.5 °F 35.6 °F 100% 29.57 in 8.0 mi South 11.5 mph - 0.00 in   Overcast
4:58 PM 36.0 °F 28.5 °F 36.0 °F 100% 29.60 in 9.0 mi South 10.4 mph - 0.00 in   Overcast
5:58 PM 36.0 °F 29.6 °F 36.0 °F 100% 29.60 in 7.0 mi SSE 8.1 mph - 0.00 in   Overcast
6:07 PM 35.6 °F 29.9 °F 35.6 °F 100% 29.57 in 6.0 mi SSE 6.9 mph - 0.00 in Rain Light Rain
6:15 PM 35.6 °F 29.9 °F 35.6 °F 100% 29.57 in 1.5 mi SSE 6.9 mph - 0.00 in Rain Light Rain
6:18 PM 35.6 °F 29.2 °F 35.6 °F 100% 29.57 in 1.0 mi SSE 8.1 mph - 0.00 in Rain Light Rain
6:20 PM 35.6 °F 29.9 °F 35.6 °F 100% 29.57 in 0.8 mi SSE 6.9 mph - 0.00 in Rain Light Rain
6:25 PM 35.6 °F 29.9 °F 35.6 °F 100% 29.57 in 0.2 mi SE 6.9 mph - 0.00 in Fog , Rain Light Rain
6:34 PM 37.4 °F 31.4 °F 35.6 °F 93% 29.57 in 0.2 mi SE 8.1 mph - 0.00 in Fog , Rain Light Rain
6:39 PM 37.4 °F 30.8 °F 35.6 °F 93% 29.57 in 0.5 mi SE 9.2 mph - 0.00 in Fog , Rain Light Rain
6:42 PM 37.4 °F 31.4 °F 35.6 °F 93% 29.56 in 1.0 mi SE 8.1 mph - 0.00 in Rain Light Rain
6:47 PM 37.4 °F 32.1 °F 35.6 °F 93% 29.57 in 2.0 mi SE 6.9 mph - 0.00 in Rain Light Rain
6:51 PM 37.4 °F 30.8 °F 35.6 °F 93% 29.57 in 3.0 mi SE 9.2 mph - 0.00 in   Overcast
6:58 PM 37.0 °F 31.6 °F 36.0 °F 96% 29.60 in 3.0 mi SE 6.9 mph - 0.00 in   Overcast
7:09 PM 37.4 °F 31.4 °F 37.4 °F 100% 29.57 in 1.8 mi SE 8.1 mph - 0.00 in   Overcast
7:16 PM 37.4 °F 31.4 °F 37.4 °F 100% 29.57 in 1.0 mi SE 8.1 mph - 0.00 in   Overcast
7:21 PM 37.4 °F 31.4 °F 37.4 °F 100% 29.57 in 1.0 mi SSE 8.1 mph - 0.00 in   Overcast
7:24 PM 37.4 °F 30.8 °F 37.4 °F 100% 29.57 in 0.5 mi SSE 9.2 mph - 0.00 in Fog Fog
7:31 PM 37.4 °F 31.4 °F 37.4 °F 100% 29.57 in 0.2 mi SSE 8.1 mph - 0.00 in Fog Fog
7:40 PM 37.4 °F 30.8 °F 37.4 °F 100% 29.57 in 0.5 mi SSE 9.2 mph - 0.00 in Fog Fog
7:42 PM 37.4 °F 30.8 °F 37.4 °F 100% 29.57 in 1.0 mi SSE 9.2 mph - 0.01 in   Overcast
7:46 PM 37.4 °F 31.4 °F 37.4 °F 100% 29.57 in 1.2 mi SSE 8.1 mph - 0.01 in   Overcast
7:50 PM 37.4 °F 31.4 °F 37.4 °F 100% 29.57 in 0.8 mi SSE 8.1 mph - 0.01 in   Overcast
7:58 PM 37.0 °F 31.6 °F 37.0 °F 100% 29.61 in 0.2 mi SE 6.9 mph - 0.01 in Fog , Rain Light Rain
8:12 PM 37.4 °F 31.4 °F 37.4 °F 100% 29.58 in 0.8 mi SE 8.1 mph - 0.00 in Rain Light Rain
8:16 PM 37.4 °F 31.4 °F 37.4 °F 100% 29.58 in 1.0 mi SE 8.1 mph - 0.00 in Rain Light Rain
8:18 PM 37.4 °F 31.4 °F 37.4 °F 100% 29.58 in 2.5 mi SE 8.1 mph - 0.00 in Rain Light Rain
8:22 PM 37.4 °F 30.8 °F 37.4 °F 100% 29.57 in 4.0 mi SE 9.2 mph - 0.00 in Rain Light Rain
8:26 PM 37.4 °F 30.3 °F 37.4 °F 100% 29.57 in 7.0 mi SE 10.4 mph - 0.00 in Rain Light Rain
8:48 PM 37.4 °F 30.3 °F 37.4 °F 100% 29.57 in 10.0 mi SE 10.4 mph - 0.00 in Rain Light Rain
8:58 PM 37.0 °F 29.8 °F 37.0 °F 100% 29.62 in 10.0 mi ESE 10.4 mph - 0.00 in   Overcast
9:08 PM 37.4 °F 29.8 °F 37.4 °F 100% 29.58 in 9.0 mi ESE 11.5 mph - 0.00 in Rain Light Rain
9:20 PM 37.4 °F 29.8 °F 37.4 °F 100% 29.58 in 10.0 mi SE 11.5 mph - 0.00 in Rain Light Rain
9:27 PM 37.4 °F 30.3 °F 37.4 °F 100% 29.57 in 10.0 mi ESE 10.4 mph - 0.00 in Rain Light Rain
9:42 PM 37.4 °F 30.3 °F 37.4 °F 100% 29.57 in 10.0 mi ESE 10.4 mph - 0.00 in Rain Light Rain
9:58 PM 37.0 °F 31.0 °F 37.0 °F 100% 29.60 in 10.0 mi ESE 8.1 mph - 0.00 in Rain Light Rain
10:58 PM 37.9 °F 30.0 °F 37.0 °F 97% 29.59 in 10.0 mi SE 12.7 mph - 0.01 in Rain Light Rain
11:52 PM 37.4 °F 29.3 °F 37.4 °F 100% 29.55 in 9.0 mi ESE 12.7 mph - 0.00 in Rain Light Rain
11:58 PM 37.9 °F 29.6 °F 37.0 °F 97% 29.58 in 7.0 mi ESE 13.8 mph - 0.00 in Rain Light Rain